Regional Weather Roundup
Issued by NWS

Home | Current Version | Previous Version | Text Only | Print | Product List | Glossary Off
Versions: 1 2 3 4 5 6 7 8 9 10 11 12 13 14 15 16 17 18 19 20 21 22 23 24 25 26 27 28 29 30 31 32 33 34 35 36 37 38 39 40 41 42 43 44 45 46 47 48 49 50

000
ASUS43 KOAX 202002
RWRNE

WEATHER ROUNDUP FOR NEBRASKA
NATIONAL WEATHER SERVICE OMAHA NE
200 PM CST SAT DEC 20 2014

NOTES: SATELLITE DATA IS BEING USED TO AUGMENT CLOUD COVER ABOVE
       12000 FEET.
       "FAIR" INDICATES FEW OR NO CLOUDS BELOW 12,000 FEET WITH NO
       SIGNIFICANT WEATHER AND/OR OBSTRUCTIONS TO VISIBILITY.

  * THESE STATIONS DO NOT REPORT WEATHER SUCH AS RAIN...SNOW OR FOG.

NEZ001>004-019>022-054>056-202100-
NEBRASKA PANHANDLE

CITY           SKY/WX    TMP DP  RH WIND       PRES   REMARKS
SCOTTSBLUFF    SUNNY     41  30  65 N6        29.94F
ALLIANCE       MOSUNNY   39  29  67 W10       29.92F WCI  32
CHADRON        MOSUNNY   45  29  53 W5        29.92F
SIDNEY         MOSUNNY   45  29  53 NW9       29.96F
$$

NEZ057>060-069>072-079>082-202100-
SOUTHWEST NEBRASKA

CITY           SKY/WX    TMP DP  RH WIND       PRES   REMARKS
NORTH PLATTE   CLOUDY    37  27  67 W7        29.95F WCI  32
IMPERIAL       PTSUNNY   45  28  51 NW5       29.95F
MCCOOK         PTSUNNY   44  30  57 S6        29.97F
$$

NEZ005>010-023>029-035>040-094-202100-
NORTH CENTRAL NEBRASKA

CITY           SKY/WX    TMP DP  RH WIND       PRES   REMARKS
VALENTINE      CLOUDY    38  27  64 W7        29.91F WCI  33
BROKEN BOW     PTSUNNY   42  32  67 S7        29.94F
$$

NEZ041-046>049-061>064-073>077-083>087-202100-
SOUTH CENTRAL NEBRASKA

CITY           SKY/WX    TMP DP  RH WIND       PRES   REMARKS
GRAND ISLAND   PTSUNNY   33  31  92 SE6       30.00F FOG     WCI  28
HASTINGS       SUNNY     41  32  70 S7        29.98F
KEARNEY *      MOSUNNY   36  28  75 S8        29.97F WCI  29
$$

NEZ011>018-030>034-042>045-202100-
NORTHEAST NEBRASKA

CITY           SKY/WX    TMP DP  RH WIND       PRES   REMARKS
NORFOLK        CLOUDY    34  31  88 SE8       29.99F FOG     WCI  27
BLAIR          CLOUDY    33  32  95 SE3       30.05S FOG
COLUMBUS *     CLOUDY    34  28  80 SE7       30.03S WCI  28
TEKAMAH        CLOUDY    34  31  88 SE8       30.07S WCI  27
$$

NEZ050>053-065>068-078-088>093-202100-
SOUTHEAST NEBRASKA

CITY           SKY/WX    TMP DP  RH WIND       PRES   REMARKS
LINCOLN        CLOUDY    34  30  85 SE6       30.06F WCI  29
OMAHA EPPLEY   CLOUDY    34  32  92 S6        30.08F FOG     WCI  29
FALLS CITY     CLOUDY    35  32  88 SW6       30.08F FOG     WCI  30
$$

NEZ044-045-051>053-067-202100-
OMAHA AREA

CITY           SKY/WX    TMP DP  RH WIND       PRES   REMARKS
OMAHA EPPLEY   CLOUDY    34  32  92 S6        30.08F FOG     WCI  29
BLAIR          CLOUDY    33  32  95 SE3       30.05S FOG
OFFUTT AFB     CLOUDY    34  32  93 E3        30.06F
$$



USA.gov is the U.S. government's official web portal to all federal, state and local government web resources and services.